This is the latest recevied weather packets stored in our database for station/object W5HKR. If no packets are shown the sender has not sent any weather packets the latest 10 day(s).
| Time | Temp. | Humidity | Pressure | Rain* | Wind** | Luminosity | Snow |
|---|---|---|---|---|---|---|---|
| 1777524504 | 19.44° C | 86% | 984.5 hPa | 0 mm | - | - | - |
| 1777524394 | 18.33° C | 91% | 990.6 hPa | 0 mm | - | - | - |
| 1777524204 | 19.44° C | 86% | 984.6 hPa | 0 mm | - | - | - |
| 1777523903 | 19.44° C | 86% | 984.9 hPa | 0 mm | - | - | - |
| 1777523603 | 19.44° C | 86% | 984.7 hPa | 0 mm | - | - | - |
| 1777523304 | 19.44° C | 86% | 984.5 hPa | 0 mm | - | - | - |
| 1777522704 | 19.44° C | 86% | 984.7 hPa | 0 mm | - | - | - |
| 1777522403 | 19.44° C | 86% | 984.9 hPa | 0 mm | - | - | - |
| 1777522234 | 18.33° C | 91% | 990.6 hPa | 0 mm | - | - | - |
| 1777522104 | 18.33° C | 91% | 990.6 hPa | 0 mm | - | - | - |
| 1777521803 | 18.33° C | 91% | 990.6 hPa | 0 mm | - | - | - |
| 1777521503 | 18.33° C | 91% | 990.6 hPa | 0 mm | - | - | - |
| 1777521205 | 20° C | 85% | 983.4 hPa | 0 mm | - | - | - |
| 1777521155 | 20° C | 85% | 983.4 hPa | 0 mm | - | - | - |
| 1777520904 | 18.33° C | 91% | 990.6 hPa | 0 mm | - | - | - |
| 1777520602 | 18.33° C | 91% | 990.6 hPa | 0 mm | - | - | - |
| 1777520302 | 18.33° C | 91% | 990.6 hPa | 0 mm | - | - | - |
| 1777520075 | 20° C | 85% | 983.2 hPa | 0 mm | - | - | - |
| 1777520003 | 20° C | 85% | 983.4 hPa | 0 mm | - | - | - |
| 1777519702 | 18.33° C | 91% | 990.6 hPa | 0 mm | - | - | - |
| 1777519403 | 20° C | 85% | 983.7 hPa | 0 mm | - | - | - |
| 1777519103 | 20° C | 85% | 983.7 hPa | 0 mm | - | - | - |
| 1777518996 | 20° C | 85% | 983.7 hPa | 0 mm | - | - | - |
| 1777518803 | 18.33° C | 91% | 990.6 hPa | 0 mm | - | - | - |
| 1777518504 | 20.56° C | 85% | 984.2 hPa | 0 mm | - | - | - |
* Rain latest hour (hover to see other rain measurements)
** Current wind speed in m/s (hover to see current wind gust speed)